"Pseudo-MPEC" for P10Inll

Created 2018 Jul 12 14:18:29 UT using Find_Orb

Click here for an explanation of pseudo-MPECs

 
 Astrometry: 
     P10Inll  C2018 06 10wWAstrometry@si4p3,vHj%CO:qLXn#@:HY$*?Va7vZd*:'j6)jZF51
     P10Inll  C2018 06 10bg/855`9U!a4YE-5`EetKPXe1HV:m6V4F3M5H3N#hjkHiy]*x#XIF51
     P10Inll  C2018 06 10S7i_EX,[hA[!HqI[yJirL3K/=IfuL?f;]L`o2v^SW_!(c7(i;K;gF51
     P10Inll  C2018 06 17^@PUC=+p6q1twrCdn[=%us.^djM%oCl.cvc-9H#Pth$q:![b]ShXF51
     P10Inll  C2018 06 17PpjtwIi@ow^k;k+cH5]69/Q:D9QQ[cWeY!_1JO+?i1A4p_\+BMD+F51
     P10Inll  C2018 06 17X8PKj'--9Lg:2R?;]redacted;^A'Ic;?HRJDYH*7;4b+oI8.vY#F51
     P10Inll  C2018 06 17beB#IDPPaEIcQt.0v8G7dvugi*=-%hO\7/[A9B@c,r7n(3`*%fH!F51
     P10Inll  C2018 06 18a5DE-GRf5[IE*!^AG2m^vLfZQ,(,n=Q9$RFkg':mxHe$ifk7%q3QF51
     P10Inll  C2018 06 188m\DOBllM,q%Rl3V9:.;Y2_EWvJ)cUuVk?_4f+arA$rgkN[_6v#[F51
     P10Inll  C2018 06 18ZWhc@x^PiX5#DA?pw`Np'sxb3i_+ltIRseeljLj(WY:l78g0b?JjF51
     P10Inll  C2018 06 18iQdg:w0S(M,)YxM,B/c!$/lwYpLI_$3rd7KmmxSvXQ#sg'Nk6u-gF51
     P10Inll  C2018 07 11wf]Jjv(##h:K5-IB^[s;yF(ZNsKI[8!!PKkLSo)S7CX+[Hi=u*puF51
     P10Inll  C2018 07 11gQI`MAnNCDS4K`]T9NRKT],IQd@LQqPlM#3A+0f^ykD\y7eQb?hHF51
     P10Inll  C2018 07 11vHrMglT=*0jax1lbQ*av(xv?c'[(p)XrU,_!:XrDhb+@NQ)Y[jVcF51
     P10Inll  C2018 07 11h,\+3q4]TlV0R;els^jO\(?adr$R$:^k1LOfr+P%oKNSpj.NEOCPF51

Station data:
(F51) Pan-STARRS 1, Haleakala  (N20.707235 W156.255910)  US/Hawaii.
   Observers N. Primak, A. Schultz, S. Watters, J. Thiel, T. Goggia. Measurer
   PS1 Science Consortium. 1.8-m Ritchey-Chrétien + CCD.

Orbital elements:  P10Inll
   Perihelion 2018 Sep 4.448001 +/- 0.0288 TT = 10:45:07 (JD 2458365.948001)
Epoch 2018 Jul 11.0 TT = JDT 2458310.5   Earth MOID: 0.5040   AutoNEOCP
M 345.53212 +/- 0.012               (J2000 ecliptic)
n   0.26092697 +/- 0.000107         Peri.  275.50464 +/- 0.030
a   2.42543735 +/- 0.000664         Node    53.41341 +/- 0.009
e   0.3839644 +/- 9.85e-5           Incl.    6.81215 +/- 0.0015
P   3.78                   H 19.3   G  0.15   U  6.6  
q 1.49415573 +/- 0.000187    Q 3.35671898 +/- 0.00115
From 15 observations 2018 June 10-July 11; mean residual 0".03
Residuals in arcseconds: 
180610 F51  .00   .01-    180617 F51  .02-  .03-    180618 F51  .05+  .02-    
180610 F51  .00   .03-    180617 F51  .02-  .05+    180711 F51  .03+  .05-    
180610 F51  .00   .03+    180618 F51  .03-  .02-    180711 F51  .01-  .02+    
180617 F51  .06+  .03+    180618 F51  .01-  .01-    180711 F51  .00   .02+    
180617 F51  .02-  .05+    180618 F51  .01-  .04-    180711 F51  .03-  .01+    

Ephemerides (geocentric):
Date (UTC) HH   RA              Dec         delta   r     elong  mag " sig PA
---- -- -- --  -------------   -----------  ------ ------ -----  --- ---- ---
2018 07 12 14  20 53 25.942   -34 42 43.85  .57763 1.5648 157.0 19.9  .09  49
2018 07 12 15  20 53 26.245   -34 43 10.97  .57747 1.5647 157.1 19.9  .09  49
2018 07 12 16  20 53 26.545   -34 43 38.08  .57730 1.5646 157.1 19.9  .09  49
2018 07 12 17  20 53 26.841   -34 44 05.18  .57713 1.5645 157.1 19.9  .09  49
2018 07 12 18  20 53 27.134   -34 44 32.28  .57697 1.5644 157.1 19.9  .10  49
2018 07 12 19  20 53 27.424   -34 44 59.36  .57680 1.5643 157.2 19.9  .10  49
2018 07 12 20  20 53 27.710   -34 45 26.44  .57664 1.5642 157.2 19.9  .10  49
2018 07 12 21  20 53 27.992   -34 45 53.51  .57647 1.5641 157.2 19.9  .10  49
2018 07 12 22  20 53 28.272   -34 46 20.56  .57631 1.5640 157.2 19.9  .10  49
2018 07 12 23  20 53 28.548   -34 46 47.61  .57614 1.5639 157.2 19.9  .11  49
2018 07 13 00  20 53 28.820   -34 47 14.66  .57598 1.5638 157.3 19.9  .11  49
2018 07 13 01  20 53 29.090   -34 47 41.69  .57581 1.5637 157.3 19.9  .11  49
2018 07 13 02  20 53 29.356   -34 48 08.71  .57565 1.5635 157.3 19.9  .11  49
2018 07 13 03  20 53 29.618   -34 48 35.73  .57549 1.5634 157.3 19.9  .12  49
2018 07 13 04  20 53 29.877   -34 49 02.73  .57532 1.5633 157.4 19.9  .12  49
2018 07 13 05  20 53 30.133   -34 49 29.73  .57516 1.5632 157.4 19.9  .12  49
2018 07 13 06  20 53 30.385   -34 49 56.71  .57500 1.5631 157.4 19.9  .12  49
2018 07 13 07  20 53 30.634   -34 50 23.69  .57484 1.5630 157.4 19.9  .12  49
2018 07 13 08  20 53 30.880   -34 50 50.66  .57467 1.5629 157.4 19.9  .13  49
2018 07 13 09  20 53 31.122   -34 51 17.62  .57451 1.5628 157.5 19.9  .13  49
2018 07 13 10  20 53 31.361   -34 51 44.57  .57435 1.5627 157.5 19.9  .13  49
2018 07 13 11  20 53 31.597   -34 52 11.50  .57419 1.5626 157.5 19.9  .13  49
2018 07 13 12  20 53 31.829   -34 52 38.43  .57403 1.5625 157.5 19.9  .14  49
2018 07 13 13  20 53 32.058   -34 53 05.35  .57387 1.5624 157.6 19.9  .14  49
2018 07 13 14  20 53 32.284   -34 53 32.26  .57371 1.5623 157.6 19.9  .14  49
2018 07 13 15  20 53 32.506   -34 53 59.16  .57355 1.5622 157.6 19.9  .14  49
2018 07 13 16  20 53 32.725   -34 54 26.05  .57339 1.5621 157.6 19.9  .14  49
2018 07 13 17  20 53 32.941   -34 54 52.92  .57323 1.5620 157.6 19.9  .15  49
2018 07 13 18  20 53 33.153   -34 55 19.79  .57307 1.5619 157.7 19.9  .15  49
2018 07 13 19  20 53 33.362   -34 55 46.65  .57291 1.5618 157.7 19.9  .15  49
2018 07 13 20  20 53 33.568   -34 56 13.50  .57275 1.5617 157.7 19.9  .15  49
2018 07 13 21  20 53 33.771   -34 56 40.33  .57259 1.5616 157.7 19.9  .16  49
2018 07 13 22  20 53 33.970   -34 57 07.16  .57244 1.5615 157.8 19.9  .16  49
2018 07 13 23  20 53 34.166   -34 57 33.97  .57228 1.5614 157.8 19.9  .16  49
2018 07 14 00  20 53 34.358   -34 58 00.78  .57212 1.5613 157.8 19.9  .16  49
2018 07 14 01  20 53 34.547   -34 58 27.57  .57196 1.5612 157.8 19.9  .17  49
2018 07 14 02  20 53 34.733   -34 58 54.35  .57180 1.5611 157.8 19.9  .17  49
2018 07 14 03  20 53 34.916   -34 59 21.12  .57165 1.5610 157.9 19.9  .17  49
2018 07 14 04  20 53 35.095   -34 59 47.88  .57149 1.5609 157.9 19.9  .17  49
2018 07 14 05  20 53 35.272   -35 00 14.63  .57134 1.5608 157.9 19.9  .18  49
2018 07 14 06  20 53 35.444   -35 00 41.37  .57118 1.5607 157.9 19.9  .18  49
2018 07 14 07  20 53 35.614   -35 01 08.09  .57102 1.5606 157.9 19.9  .18  49
2018 07 14 08  20 53 35.780   -35 01 34.81  .57087 1.5605 158.0 19.9  .18  49
2018 07 14 09  20 53 35.943   -35 02 01.51  .57071 1.5604 158.0 19.9  .19  49
2018 07 14 10  20 53 36.103   -35 02 28.20  .57056 1.5603 158.0 19.9  .19  49
2018 07 14 11  20 53 36.260   -35 02 54.88  .57040 1.5602 158.0 19.9  .19  49
2018 07 14 12  20 53 36.413   -35 03 21.55  .57025 1.5601 158.0 19.9  .19  49
2018 07 14 13  20 53 36.563   -35 03 48.21  .57009 1.5600 158.1 19.8  .20  49